星链-5743 (STARLINK-5743 )

导读

STARLINK-5743是美国太空探索技术公司SpaceX星链卫星互联网项目中的一颗卫星,于北京时间2023年2月12日发射入轨,属于星链星座扩容任务的组成部分,主要服务全球卫星互联网覆盖,为偏远地区、海洋空域等场景提供低延迟宽带网络接入服务,目前该卫星已正常在轨运行超3年,参与星链星座组网工作。

基本信息
目录编号:
55597
目录名称:
STARLINK-5743
国际标识:
2023-020AE
轨道中心:
EARTH
卫星名称:
星链-5743
卫星全名:
星链-5743 (STARLINK-5743 )
卫星状态:
在轨 (已飞行1219 天)
发射日期:
2023-02-12 UTC
国别 :
美国 (US)
星等 :
--
轨道信息
数据来源 国际轨道数据 AOE轨道数据
星历时间 2026-06-15T01:28:47+0800
9小时前
查看轨道信息
2026-06-14T08:00:00+0800
1天前
查看轨道信息
半长轴 6861.199km 6861.12km
偏心率 0.0001284 0.0001337
轨道倾角 43.002° 43.001°
近地点辐角 269.847° 253.167°
升交点赤经 165.918° 170.034°
平近点角 90.223° 56.992°
近地点 482.181km 482.065km
远地点 483.943km 483.901km
周期 94.267分钟 94.265分钟
每日圈数 15.275759 15.276022
详细信息
固有亮度:
5
最大亮度:
2.5
卫星平台:
Starlink v1.5
覆盖范围:
全球
运营商:
太空探索技术公司
运营商所在国:
美国
制造商(研发单位):
太空探索技术公司
制造商所在国:
美国
使用方式:
暂无
卫星简介
星链(Starlink)计划是由太空探索技术公司(SpaceX)提出的一个巨型低轨卫星互联网星座项目,计划在2019年至2024年间在太空搭建由约1.2万颗卫星组成的“星链”网络,其中1584颗将部署在地球上空550千米处的近地轨道,并从2020年开始工作。该卫星仍在工作。
2D轨道图
3D轨道图
轨道高度分析图
轨道倾角分析图
轨道综合分析图
查看轨道综合分析图